Overview Statistics Trail Chart Weather Telemetry Raw packets
 

This is the latest recevied weather packets stored in our database for station/object 9W2CHF-2. If no packets are shown the sender has not sent any weather packets the latest 10 day(s).

<< 12 13 14 15 16 17 18 >>
Time Temp. Humidity Pressure Rain* Wind** Luminosity Snow
1788324395 32.78° C 67% 1013.2 hPa - - - -
1788323494 32.22° C 69% 1013.4 hPa - - - -
1788322594 32.22° C 68% 1013.6 hPa - - - -
1788321694 32.22° C 70% 1013.7 hPa - - - -
1788320825 32.22° C 70% 1014 hPa - - - -
1788319925 32.78° C 67% 1014 hPa - - - -
1788319047 32.78° C 66% 1014.2 hPa - - - -
1788318125 32.78° C 67% 1014.4 hPa - - - -
1788317225 32.78° C 65% 1014.5 hPa - - - -
1788316325 32.78° C 65% 1014.5 hPa - - - -
1788315425 32.22° C 69% 1014.5 hPa - - - -
1788314525 32.78° C 66% 1014.4 hPa - - - -
1788313624 32.78° C 67% 1014.2 hPa - - - -
1788312723 32.78° C 63% 1014.1 hPa - - - -
1788311823 32.78° C 68% 1013.8 hPa - - - -
1788310923 32.78° C 68% 1013.6 hPa - - - -
1788310023 32.78° C 67% 1013.4 hPa - - - -
1788309123 32.78° C 66% 1013.3 hPa - - - -
1788308223 32.78° C 65% 1013.1 hPa - - - -
1788307323 32.78° C 65% 1012.9 hPa - - - -
1788306422 32.78° C 64% 1012.8 hPa - - - -
1788305522 32.78° C 64% 1012.7 hPa - - - -
1788304622 32.78° C 64% 1012.6 hPa - - - -
1788303722 32.78° C 65% 1012.5 hPa - - - -
1788302822 32.78° C 65% 1012.4 hPa - - - -

* Rain since midnight (hover to see other rain measurements)
** Current wind speed in m/s (hover to see current wind gust speed)